TimeMDT,TemperatureF,Dew PointF,Humidity,Sea Level PressureIn,VisibilityMPH,Wind Direction,Wind SpeedMPH,Gust SpeedMPH,PrecipitationIn,Events,Conditions,WindDirDegrees,DateUTC
12:53 AM,15.1,10.9,84,30.17,10.0,ESE,15.0,-,N/A,,Clear,110,2013-03-26 06:53:00
1:53 AM,14.0,10.0,84,30.16,10.0,East,15.0,-,N/A,,Clear,100,2013-03-26 07:53:00
2:53 AM,12.9,9.0,84,30.13,10.0,East,13.8,-,N/A,,Clear,100,2013-03-26 08:53:00
3:53 AM,12.0,8.1,84,30.12,10.0,East,17.3,-,N/A,,Clear,100,2013-03-26 09:53:00
4:53 AM,10.0,6.1,84,30.12,10.0,East,12.7,-,N/A,,Clear,100,2013-03-26 10:53:00
5:53 AM,9.0,5.0,84,30.11,10.0,ESE,13.8,-,N/A,,Clear,110,2013-03-26 11:53:00
6:53 AM,6.1,3.0,87,30.13,10.0,East,12.7,-,N/A,,Clear,100,2013-03-26 12:53:00
7:53 AM,8.1,3.9,83,30.14,10.0,East,10.4,-,N/A,,Clear,100,2013-03-26 13:53:00
8:53 AM,14.0,8.1,77,30.14,10.0,East,9.2,-,N/A,,Clear,90,2013-03-26 14:53:00
9:53 AM,19.0,12.0,74,30.13,10.0,East,4.6,-,N/A,,Clear,80,2013-03-26 15:53:00
10:53 AM,23.0,14.0,68,30.14,10.0,Calm,Calm,-,N/A,,Clear,0,2013-03-26 16:53:00
11:53 AM,26.1,15.1,63,30.14,10.0,Calm,Calm,-,N/A,,Clear,0,2013-03-26 17:53:00
12:53 PM,28.9,17.1,61,30.14,10.0,Calm,Calm,-,N/A,,Clear,0,2013-03-26 18:53:00
1:53 PM,30.9,18.0,59,30.13,10.0,Calm,Calm,-,N/A,,Clear,0,2013-03-26 19:53:00
2:53 PM,32.0,19.0,59,30.12,10.0,Calm,Calm,-,N/A,,Clear,0,2013-03-26 20:53:00
3:53 PM,33.1,19.9,59,30.12,10.0,NNE,3.5,-,N/A,,Clear,30,2013-03-26 21:53:00
4:53 PM,34.0,21.0,59,30.13,10.0,NE,3.5,-,N/A,,Clear,40,2013-03-26 22:53:00
5:53 PM,32.0,21.9,66,30.14,10.0,East,4.6,-,N/A,,Clear,90,2013-03-26 23:53:00
6:53 PM,30.0,21.9,72,30.16,10.0,ESE,6.9,-,N/A,,Clear,120,2013-03-27 00:53:00
7:53 PM,24.1,19.0,81,30.17,10.0,East,9.2,-,N/A,,Clear,90,2013-03-27 01:53:00
8:53 PM,21.9,18.0,85,30.17,10.0,East,9.2,-,N/A,,Clear,90,2013-03-27 02:53:00
9:53 PM,18.0,15.1,88,30.17,10.0,East,9.2,-,N/A,,Clear,90,2013-03-27 03:53:00
10:53 PM,18.0,14.0,84,30.17,10.0,East,8.1,-,N/A,,Clear,80,2013-03-27 04:53:00
11:53 PM,17.1,12.0,81,30.16,10.0,East,5.8,-,N/A,,Clear,90,2013-03-27 05:53:00